Regional Weather Roundup
Issued by NWS Newport/Morehead, NC

Current Version | Previous Version | Graphics & Text | Print | Product List | Glossary Off
Versions: 1 2 3 4 5 6 7 8 9 10 11 12 13 14 15 16 17 18 19 20 21 22 23 24 25 26 27 28 29 30 31 32 33 34 35 36 37 38 39 40 41 42 43 44 45 46 47 48 49 50

000
ASUS42 KMHX 222122
RWRMHX
WEATHER ROUNDUP FOR EASTERN NORTH CAROLINA
NATIONAL WEATHER SERVICE NEWPORT/MOREHEAD CITY NC
500 PM EDT FRI AUG 22 2014

NOTE: "FAIR" INDICATES FEW OR NO CLOUDS BELOW 12,000 FEET
WITH NO SIGNIFICANT WEATHER AND/OR OBSTRUCTIONS TO VISIBILITY

NCZ015>017-031-032-045>047-102-103-222200-
NORTH COAST

CITY           SKY/WX    TMP DP  RH WIND       PRES   REMARKS
EDENTON        PTSUNNY   84  73  67 NW5       29.94R
ELIZABETH CITY CLOUDY    83  69  62 NW8       29.94R
KITTY HAWK     MOCLDY    80  74  80 NE3       29.93R
MANTEO         CLOUDY    82  73  74 NW6       29.93R

$$

NCZ045>047-081-094-103-104-222200-
CENTRAL COAST

CITY           SKY/WX    TMP DP  RH WIND       PRES   REMARKS
FRISCO         MOSUNNY   86  72  62 NW7       29.92F
SWANQUARTER      N/A     88 N/A N/A NW7G14    29.88S

$$

NCZ095-097-098-100-101-222200-
SOUTHERN COAST

CITY           SKY/WX    TMP DP  RH WIND       PRES   REMARKS
BEAUFORT       MOSUNNY   89  75  63 W12       29.93F
CEDAR ISLAND     N/A     88 N/A N/A NW9       29.97S
JACKSONVILLE   MOSUNNY   93  70  46 NW8G21    29.93F
NEWPORT        NOT AVBL
PINEY ISLAND   PTCLDY    93  75  55 NW9       29.92F HX 104
WILMINGTON     MOSUNNY   92  72  51 N5        29.93F


$$

NCZ011>013-027>030-043-044-078>080-089-090>093-098-222200-
COASTAL PLAIN

CITY           SKY/WX    TMP DP  RH WIND       PRES   REMARKS
AHOSKIE        PTSUNNY   82  73  76 CALM      29.95S
CLINTON        MOSUNNY   94  74  52 CALM      29.94F HX 103
ELIZABETHTOWN  MOSUNNY   91  70  50 S5        29.94S
GOLDSBORO      MOSUNNY   92  76  59 W7        29.92F HX 103
GREENVILLE     MOSUNNY   90  72  55 NW8       29.96S
HAVELOCK       MOSUNNY   93  71  48 W7        29.94S HX 100
KENANSVILLE    MOSUNNY   91  68  46 CALM      29.95F
KINSTON        MOSUNNY   91  70  49 NW9       29.95F
NEW BERN       MOSUNNY   92  72  51 W6        29.94F
RICHLANDS      SUNNY     93  70  46 NW6       29.94S
ROANOKE RAPIDS NOT AVBL
ROCKY MOUNT    PTSUNNY   87  70  56 NW6       29.95F
WASHINGTON     PTSUNNY   86  71  61 N7        29.94S
WHITEVILLE     SUNNY     94  72  48 SW3       29.93F HX 101

$$

AMZ130-135-150-152-154-156-158-170-250-252-270-ANZ085-086-088-633-658-670-222200-
MARINE OBSERVATIONS

STATION/POSITION TIME  TEMP    WIND        PRES    WAVE   SWELL
                       AIR SEA DIR/SP/G            HT/PER HT/PER
                 (UTC) (F)     (DEG/KT/KT) (MB)    (FT/S) (FT/S)
CHESAPEAKE LIGHT 2100   79     330/ 10/ 11 1014.3
BUOY 44014       2100   78 79  350/  8/ 10 1012.6    2/ 8   2/ 8
DUCK             2100   80 81   10/  9/ 10 1012.9
2E DUCK          2100                        N/A     2/ 7
OREGON INLET     2100   84 84  310/  8/ 11 1013.2
BUOY 44095       2100      81                N/A     2/ 9
20E OREGON INLET NOT AVBL
HATTERAS CG      2100   87 85  290/  7/  8 1013.7
DIAMOND BUOY     2100   83     280/ 10/ 14 1013.2    2/ 8   2/ 8
CAPE LOOKOUT     2100   86     250/  7/ 11 1013.4
BEAUFORT LAB     2100   88 83  230/  4/  9 1013.2
30 SE NEW RIVER  2100   84 84  230/ 10/ 12 1013.2    1/ 9   2/ 9
5 SE WRIGHTSVILL 2100   82 85  190/  8/ 10   N/A
BUOY 41002       1954   83 83  260/ 12/ 16 1015.9    2/ 4   2/ 9
BUOY 41004       2100   86 86  200/ 10/ 12 1014.3    1/ 9   2/ 9

$$


USA.gov is the U.S. government's official web portal to all federal, state and local government web resources and services.